Change the Weather History Date:

Sunday, February 3, 2013

  Actual Average Record
Temperature  
Mean Temperature 24 °F 20 °F  
Max Temperature 38 °F 33 °F 68 °F (1998)
Min Temperature 10 °F 7 °F -25 °F (2011)
Degree Days  
Heating Degree Days 41 45  
Month to date heating degree days 127 135  
Since 1 July heating degree days 4872 5257  
Cooling Degree Days 0 0  
Month to date cooling degree days 0 0  
Year to date cooling degree days 0 0  
Moisture  
Dew Point 9 °F    
Average Humidity 54    
Maximum Humidity 76    
Minimum Humidity 32    
Precipitation  
Precipitation 0.00 in 0.03 in 1.22 in (1989)
Month to date precipitation T 0.10  
Year to date precipitation 0.51 1.13  
Sea Level Pressure  
Sea Level Pressure 30.21 in    
Wind  
Wind Speed 4 mph (SSW)    
Max Wind Speed 12 mph    
Max Gust Speed 15 mph    
Visibility 10 miles    
Events      
T = Trace of Precipitation, MM = Missing Value Source: NWS Daily Summary

Daily Weather History Graph

Daily Weather History Graph

Search for Another Location

Airport or City:

Trip Planner

Search our weather history database for the weather conditions in past years. The results will help you decide how hot, cold, wet, or windy it might be!

Date:

Astronomy

Feb. 03, 2013 Rise Set
Actual Time 7:12 AM MST 5:30 PM MST
Civil Twilight 6:44 AM MST 5:59 PM MST
Nautical Twilight 6:12 AM MST 6:31 PM MST
Astronomical Twilight 5:40 AM MST 7:02 PM MST
Moon 12:42 AM MST (2/3) 11:10 AM MST (2/3)
Length of Visible Light 11h 15m
Length of Day
10h 18m
Waning Gibbous, 48% of the Moon is Illuminated
Feb 3
Waning Gibbous
Feb 10
New
Feb 17
First Quarter
Feb 25
Full
Mar 4
Last Quarter

Hourly Weather History & Observations

Time (MST) Temp. Windchill Dew Point Humidity Pressure Visibility Wind Dir Wind Speed Gust Speed Precip Events Conditions
12:53 AM 14.0 °F 6.5 °F 6.1 °F 71% 30.36 in 10.0 mi South 4.6 mph - N/A   Clear
1:53 AM 12.9 °F - 6.1 °F 74% 30.32 in 10.0 mi Calm Calm - N/A   Clear
2:53 AM 15.1 °F 5.2 °F 7.0 °F 70% 30.30 in 10.0 mi South 6.9 mph - N/A   Clear
3:53 AM 14.0 °F 6.5 °F 6.1 °F 71% 30.30 in 10.0 mi South 4.6 mph - N/A   Clear
4:53 AM 12.0 °F 2.7 °F 5.0 °F 73% 30.32 in 10.0 mi South 5.8 mph - N/A   Clear
5:53 AM 14.0 °F 3.9 °F 6.1 °F 71% 30.34 in 10.0 mi South 6.9 mph - N/A   Clear
6:53 AM 12.9 °F 6.9 °F 6.1 °F 74% 30.33 in 10.0 mi Variable 3.5 mph - N/A   Clear
7:53 AM 12.0 °F 5.9 °F 5.0 °F 73% 30.31 in 10.0 mi South 3.5 mph - N/A   Clear
8:53 AM 19.9 °F - 9.0 °F 62% 30.27 in 10.0 mi Calm Calm - N/A   Clear
9:53 AM 25.0 °F - 10.9 °F 55% 30.21 in 10.0 mi Calm Calm - N/A   Clear
10:53 AM 28.9 °F 22.8 °F 12.9 °F 51% 30.17 in 10.0 mi NNW 5.8 mph - N/A   Clear
11:53 AM 32.0 °F 27.5 °F 10.9 °F 42% 30.13 in 10.0 mi North 4.6 mph - N/A   Partly Cloudy
12:53 PM 34.0 °F 28.8 °F 14.0 °F 44% 30.09 in 10.0 mi North 5.8 mph - N/A   Partly Cloudy
1:53 PM 34.0 °F 31.0 °F 15.1 °F 46% 30.07 in 10.0 mi North 3.5 mph - N/A   Partly Cloudy
2:53 PM 36.0 °F 32.1 °F 10.0 °F 34% 30.06 in 10.0 mi Variable 4.6 mph - N/A   Partly Cloudy
3:53 PM 35.1 °F 32.2 °F 8.1 °F 33% 30.08 in 10.0 mi Variable 3.5 mph - N/A   Partly Cloudy
4:53 PM 32.0 °F 24.8 °F 10.9 °F 42% 30.11 in 10.0 mi NW 8.1 mph - N/A   Partly Cloudy
5:53 PM 26.1 °F - 10.9 °F 53% 30.15 in 10.0 mi Calm Calm - N/A   Clear
6:53 PM 23.0 °F 15.8 °F 10.0 °F 58% 30.18 in 10.0 mi South 5.8 mph - N/A   Clear
7:53 PM 21.9 °F 12.5 °F 10.0 °F 60% 30.18 in 10.0 mi SSW 8.1 mph - N/A   Clear
8:53 PM 14.0 °F 6.5 °F 6.1 °F 71% 30.21 in 10.0 mi SSW 4.6 mph - N/A   Clear
9:53 PM 15.1 °F 6.4 °F 7.0 °F 70% 30.17 in 10.0 mi SSW 5.8 mph - N/A   Clear
10:53 PM 17.1 °F 8.7 °F 7.0 °F 65% 30.14 in 10.0 mi SSW 5.8 mph - N/A   Clear
11:53 PM 14.0 °F 6.5 °F 5.0 °F 67% 30.14 in 10.0 mi SSW 4.6 mph - N/A   Clear